[[{"header":{"parameterUnit":"m.s-1","parameterCategory":1,"la1":30.2991,"la2":30.254,"lo1":-89.0895,"lo2":-89.0444,"dy":0.0017,"dx":0.0017,"nx":28,"ny":28,"refTime":"2024-07-28T09:00:00:Z","depth":0,"parameterNumber":2,"parameterNumberName":"U-component_of_WINDS"},"data":[0,0,0,0,0,0,0,0,0,0,0,0,0,0,0,0,0,0,0,0,0,0,0,0,0,0,0,0,0,0,0,0,0,0,0,0,0,0,0,0,0,0,0,0,0,0,0,0,0,0,0,0,0,0,0,0,0,0,-0.5017,-0.5016,0,-0.4991,-0.4991,-0.4991,-0.4975,-0.4974,-0.4974,-0.4974,-0.4946,-0.4946,-0.4945,0,0,0,0,0,0,0,0,0,0,0,0,0,-0.5049,-0.5048,-0.5017,-0.5016,-0.5016,-0.4992,-0.4991,-0.4991,-0.4975,-0.4974,-0.4974,-0.4974,-0.4946,-0.4946,-0.4945,0,0,0,0,0,0,0,0,0,0,0,0,0,-0.503,-0.5048,-0.5017,-0.5005,-0.5004,-0.4992,-0.4991,-0.4991,-0.4975,-0.4974,-0.4974,-0.4974,-0.4947,-0.4946,-0.4945,-0.4942,0,0,-0.4942,-0.4941,0,0,0,0,0,0,0,0,-0.5031,-0.5029,-0.5007,-0.5006,-0.5004,-0.4986,-0.4992,-0.4974,-0.4975,-0.4986,-0.4974,-0.4974,-0.4959,-0.4957,-0.4953,-0.494,-0.4939,-0.4942,-0.4941,-0.4941,-0.494,0,0,0,0,0,0,0,-0.5033,-0.503,-0.5007,-0.5007,-0.5005,-0.5,-0.4998,-0.4989,-0.4974,-0.4985,-0.4983,-0.4981,-0.4959,-0.4954,-0.4952,-0.4939,-0.4942,-0.4941,-0.494,-0.494,-0.4922,-0.4922,0,0,0,0,0,0,-0.5036,-0.5031,-0.5007,-0.5006,-0.5018,-0.5,-0.4997,-0.4992,-0.4974,-0.4971,-0.4981,-0.498,-0.4956,-0.4953,-0.4951,-0.4946,-0.4941,-0.494,-0.4939,-0.4922,-0.4922,-0.4922,0,0,0,0,0,0,-0.5037,-0.5034,-0.5009,-0.5018,-0.5015,-0.5,-0.4994,-0.4992,-0.4987,-0.4971,-0.4968,-0.4979,-0.4955,-0.4952,-0.4944,-0.4945,-0.4939,-0.4938,-0.4921,-0.4922,-0.4922,-0.4937,0,0,0,0,0,0,-0.5038,-0.5035,-0.5034,-0.5018,-0.5014,-0.5003,-0.4994,-0.4991,-0.4986,-0.4984,-0.4968,-0.4965,-0.4955,-0.4946,-0.4943,-0.4944,-0.4938,-0.4921,-0.4922,-0.4922,-0.4936,-0.4937,-0.4938,0,0,0,0,0,-0.5039,-0.5039,-0.5034,-0.5031,-0.5013,-0.5003,-0.5,-0.4989,-0.4986,-0.4984,-0.4974,-0.4966,-0.4945,-0.4945,-0.4942,-0.4942,-0.4921,-0.4922,-0.4922,-0.4935,-0.4937,-0.4938,0,0,0,0,0,0,-0.5054,-0.5036,-0.5031,-0.5026,-0.5016,-0.5,-0.4998,-0.4991,-0.4982,-0.4981,-0.4967,-0.4963,-0.4956,-0.4948,-0.4948,-0.4938,-0.4932,-0.4932,-0.4944,-0.4945,-0.4946,-0.4948,-0.4937,0,0,0,0,0,-0.5057,-0.505,-0.5035,-0.5032,-0.5027,-0.5014,-0.5009,-0.5001,-0.499,-0.4986,-0.4975,-0.4964,-0.4955,-0.4949,-0.494,-0.4934,-0.493,-0.4933,-0.4934,-0.4935,-0.4935,-0.4931,-0.4932,-0.4923,-0.4923,-0.4923,0,0,-0.5062,-0.5052,-0.5049,-0.5035,-0.5026,-0.502,-0.501,-0.5004,-0.4999,-0.4985,-0.4976,-0.4968,-0.4955,-0.4948,-0.4944,-0.4941,-0.4937,-0.4935,-0.4936,-0.4936,-0.4932,-0.4932,-0.4933,-0.4923,-0.4923,-0.4923,0,0,-0.5069,-0.506,-0.5057,-0.5048,-0.5036,-0.5027,-0.5026,-0.5011,-0.5005,-0.4997,-0.4986,-0.4979,-0.4964,-0.4955,-0.4949,-0.4951,-0.4944,-0.4949,-0.4955,-0.4951,-0.4952,-0.4953,-0.4954,-0.4954,-0.4949,-0.4949,-0.4949,0,-0.5077,-0.5067,-0.5055,-0.505,-0.5044,-0.5031,-0.5027,-0.5019,-0.5004,-0.5,-0.4997,-0.4977,-0.4967,-0.4958,-0.4959,-0.4954,-0.4952,-0.4951,-0.4953,-0.4954,-0.4954,-0.4955,-0.4955,-0.4949,-0.4949,-0.4949,-0.4949,0,-0.5078,-0.5071,-0.507,-0.5056,-0.505,-0.5045,-0.5032,-0.5027,-0.5019,-0.501,-0.5001,-0.4989,-0.4977,-0.4974,-0.4966,-0.4963,-0.4962,-0.4956,-0.495,-0.4956,-0.4956,-0.4957,-0.495,-0.495,-0.495,-0.495,0,0,-0.5094,-0.5074,-0.5074,-0.5067,-0.5052,-0.5047,-0.5041,-0.503,-0.5025,-0.5015,-0.501,-0.4997,-0.4991,-0.4984,-0.4975,-0.4972,-0.4974,-0.4966,-0.4965,-0.4968,-0.497,-0.4976,-0.4976,-0.4969,-0.4969,-0.4969,-0.4972,0,-0.5099,-0.5089,-0.5078,-0.5071,-0.5064,-0.5052,-0.5046,-0.5036,-0.5027,-0.502,-0.501,-0.5001,-0.4994,-0.499,-0.4986,-0.4975,-0.4975,-0.4975,-0.4963,-0.4963,-0.4968,-0.4976,-0.4982,-0.4985,-0.4972,-0.4972,-0.4972,0,-0.5103,-0.5095,-0.5087,-0.5073,-0.507,-0.5065,-0.5054,-0.5047,-0.5035,-0.5029,-0.502,-0.5011,-0.5003,-0.4998,-0.4987,-0.4987,-0.4981,-0.4975,-0.4975,-0.4974,-0.4968,-0.4976,-0.4986,-0.4986,-0.4972,-0.4972,-0.4972,0,-0.5117,-0.5102,-0.5096,-0.5091,-0.5074,-0.5071,-0.5064,-0.5051,-0.5045,-0.5035,-0.5031,-0.502,-0.5014,-0.5005,-0.4992,-0.4989,-0.4982,-0.4976,-0.4977,-0.4977,-0.4976,-0.4977,-0.4986,-0.4972,-0.4972,-0.4972,-0.4972,0,-0.5123,-0.512,-0.5102,-0.5098,-0.5093,-0.508,-0.5075,-0.5066,-0.5056,-0.5049,-0.5037,-0.5032,-0.5015,-0.5007,-0.4997,-0.4989,-0.4986,-0.4981,-0.4978,-0.4982,-0.4983,-0.4979,-0.4979,-0.4972,-0.4972,-0.4972,-0.4972,0,-0.5138,-0.5126,-0.5118,-0.5102,-0.5098,-0.5095,-0.5081,-0.5077,-0.5067,-0.506,-0.5057,-0.5041,-0.5031,-0.5018,-0.5003,-0.4996,-0.499,-0.4986,-0.4995,-0.4993,-0.4995,-0.4995,-0.5002,-0.5002,-0.4988,-0.4988,-0.4988,0,-0.5143,-0.514,-0.5124,-0.5119,-0.5113,-0.5105,-0.5099,-0.5085,-0.5079,-0.5065,-0.5062,-0.5051,-0.5042,-0.5026,-0.5013,-0.5002,-0.4997,-0.5,-0.4996,-0.5,-0.4998,-0.4998,-0.4998,-0.5002,-0.5002,-0.5002,-0.5003,0,-0.5155,-0.5149,-0.5141,-0.5131,-0.5124,-0.5115,-0.5105,-0.5102,-0.5086,-0.508,-0.507,-0.5063,-0.5048,-0.5037,-0.5024,-0.5015,-0.5006,-0.5004,-0.5004,-0.5008,-0.5014,-0.5011,-0.4998,-0.5004,-0.5004,-0.5004,-0.5004,-0.5004,-0.5165,-0.5162,-0.515,-0.5141,-0.5133,-0.5124,-0.5119,-0.5109,-0.51,-0.5088,-0.508,-0.507,-0.5057,-0.5039,-0.503,-0.5022,-0.5018,-0.5018,-0.5018,-0.5018,-0.5019,-0.5015,-0.5019,-0.5019,-0.5019,-0.5019,-0.5019,0,-0.5176,-0.5168,-0.516,-0.5148,-0.514,-0.5133,-0.5122,-0.5116,-0.5108,-0.5097,-0.5088,-0.5076,-0.5066,-0.5051,-0.504,-0.5036,-0.5031,-0.5033,-0.5033,-0.5032,-0.5023,-0.5025,-0.5037,-0.5037,-0.5037,-0.5037,-0.5037,-0.5037,-0.5182,-0.5175,-0.5168,-0.5157,-0.5148,-0.5139,-0.5134,-0.5125,-0.5117,-0.5104,-0.5095,-0.5086,-0.5074,-0.5061,-0.5051,-0.5047,-0.5043,-0.5046,-0.5041,-0.5034,-0.5032,-0.5031,-0.5032,-0.5045,-0.5045,-0.505,-0.505,-0.505]},{"header":{"parameterUnit":"m.s-1","parameterCategory":1,"la1":30.2991,"la2":30.254,"lo1":-89.0895,"lo2":-89.0444,"dy":0.0017,"dx":0.0017,"nx":28,"ny":28,"refTime":"2024-07-28T09:00:00:Z","depth":0,"parameterNumber":3,"parameterNumberName":"V-component_of_WINDS"},"data":[0,0,0,0,0,0,0,0,0,0,0,0,0,0,0,0,0,0,0,0,0,0,0,0,0,0,0,0,0,0,0,0,0,0,0,0,0,0,0,0,0,0,0,0,0,0,0,0,0,0,0,0,0,0,0,0,0,0,1.4588,1.4588,0,1.4572,1.4572,1.4572,1.4557,1.4557,1.4557,1.4557,1.454,1.454,1.454,0,0,0,0,0,0,0,0,0,0,0,0,0,1.4604,1.4604,1.4588,1.4588,1.4587,1.4572,1.4572,1.4572,1.4558,1.4557,1.4557,1.4557,1.454,1.454,1.4539,0,0,0,0,0,0,0,0,0,0,0,0,0,1.4594,1.4604,1.4588,1.4579,1.4578,1.4572,1.4572,1.4572,1.4558,1.4557,1.4557,1.4557,1.454,1.454,1.4539,1.4542,0,0,1.4538,1.4538,0,0,0,0,0,0,0,0,1.4594,1.4593,1.458,1.4579,1.4578,1.4567,1.4572,1.4562,1.4558,1.4565,1.4557,1.4557,1.4549,1.4548,1.4545,1.4541,1.454,1.4538,1.4538,1.4538,1.4537,0,0,0,0,0,0,0,1.4595,1.4594,1.4582,1.458,1.4579,1.4575,1.4573,1.457,1.4559,1.4564,1.4563,1.4562,1.4548,1.4546,1.4545,1.454,1.4538,1.4538,1.4537,1.4537,1.4536,1.4536,0,0,0,0,0,0,1.4597,1.4594,1.4582,1.4581,1.4586,1.4575,1.4573,1.457,1.4559,1.4557,1.4562,1.4561,1.4547,1.4545,1.4544,1.4545,1.4538,1.4537,1.4537,1.4535,1.4536,1.4536,0,0,0,0,0,0,1.4598,1.4596,1.4583,1.4587,1.4585,1.4575,1.4572,1.457,1.4568,1.4557,1.4555,1.4562,1.4547,1.4545,1.4542,1.4545,1.4537,1.4537,1.4535,1.4535,1.4536,1.4549,0,0,0,0,0,0,1.4598,1.4597,1.4598,1.4588,1.4585,1.4582,1.4572,1.457,1.4567,1.4566,1.4556,1.4554,1.4546,1.4543,1.4542,1.4544,1.4536,1.4535,1.4535,1.4536,1.4548,1.4549,1.455,0,0,0,0,0,1.4599,1.4602,1.4598,1.4597,1.4587,1.4582,1.458,1.4572,1.4567,1.4568,1.4561,1.4554,1.4545,1.4543,1.4542,1.4544,1.4535,1.4535,1.4536,1.4547,1.4549,1.455,0,0,0,0,0,0,1.4613,1.4601,1.4596,1.4596,1.459,1.4579,1.458,1.4574,1.4569,1.4568,1.4557,1.4555,1.4553,1.4548,1.4546,1.4545,1.4539,1.4539,1.4548,1.455,1.4551,1.4552,1.4536,0,0,0,0,0,1.4616,1.4613,1.4603,1.4604,1.4601,1.4591,1.4589,1.4582,1.4576,1.4573,1.4566,1.4559,1.4555,1.4552,1.4547,1.4547,1.4544,1.4548,1.4549,1.455,1.455,1.4549,1.455,1.4538,1.4537,1.4537,0,0,1.4622,1.4615,1.4614,1.4606,1.4601,1.4598,1.4589,1.4587,1.4584,1.4573,1.457,1.4564,1.4556,1.4554,1.4553,1.455,1.4553,1.4551,1.4552,1.4551,1.4549,1.4551,1.4552,1.4538,1.4538,1.4538,0,0,1.4632,1.4627,1.4626,1.4621,1.4613,1.4607,1.4607,1.4597,1.4593,1.4589,1.4581,1.4577,1.457,1.4564,1.456,1.4567,1.456,1.4566,1.4573,1.4571,1.4572,1.4573,1.4575,1.4576,1.4566,1.4566,1.4566,0,1.464,1.4636,1.4627,1.4625,1.4621,1.4611,1.461,1.4606,1.4596,1.4594,1.4591,1.458,1.4574,1.4571,1.4572,1.457,1.4569,1.4567,1.4573,1.4574,1.4574,1.4576,1.4576,1.4567,1.4567,1.4567,1.4567,0,1.4647,1.4644,1.4644,1.4636,1.4632,1.4631,1.4621,1.4619,1.4613,1.4606,1.4603,1.4595,1.4588,1.4587,1.4581,1.4582,1.458,1.4575,1.4569,1.4576,1.4577,1.4578,1.4568,1.4568,1.4567,1.4567,0,0,1.4664,1.4651,1.4651,1.4647,1.4637,1.4634,1.4632,1.4626,1.4623,1.4617,1.4614,1.4608,1.4603,1.4599,1.4592,1.4591,1.4596,1.4586,1.4585,1.4587,1.4595,1.4599,1.46,1.4591,1.4591,1.4591,1.4596,0,1.4672,1.4668,1.4659,1.4658,1.4654,1.4644,1.4642,1.4636,1.4629,1.4625,1.4618,1.4613,1.4608,1.4605,1.4603,1.4595,1.4597,1.4595,1.4588,1.4588,1.459,1.4601,1.4605,1.4609,1.4596,1.4596,1.4596,0,1.468,1.4675,1.4673,1.4662,1.4661,1.4659,1.4652,1.4648,1.464,1.4636,1.4631,1.4623,1.462,1.4614,1.4609,1.4607,1.4604,1.46,1.46,1.4598,1.4592,1.4599,1.461,1.4611,1.4597,1.4597,1.4597,0,1.4692,1.4684,1.4682,1.4679,1.4667,1.4666,1.4661,1.4653,1.4649,1.4643,1.464,1.4633,1.463,1.4624,1.4615,1.4612,1.461,1.4604,1.4605,1.4605,1.4605,1.4605,1.4616,1.4604,1.4604,1.4604,1.4604,0,1.4701,1.47,1.4687,1.4686,1.4684,1.4674,1.4673,1.4666,1.4659,1.4656,1.4647,1.4644,1.4632,1.4627,1.462,1.4615,1.4614,1.461,1.4607,1.461,1.4611,1.4607,1.4607,1.4604,1.4604,1.4604,1.4604,0,1.4714,1.4706,1.4702,1.4692,1.4689,1.4688,1.4678,1.4676,1.4669,1.4665,1.4663,1.4652,1.4646,1.4636,1.4627,1.4622,1.4619,1.4616,1.4622,1.4621,1.4622,1.4622,1.4631,1.4631,1.462,1.462,1.462,0,1.472,1.4719,1.4708,1.4705,1.4701,1.4697,1.4693,1.4683,1.4679,1.467,1.4668,1.4662,1.4656,1.4646,1.4637,1.463,1.4626,1.4629,1.4625,1.4627,1.4625,1.4625,1.4625,1.463,1.4631,1.4631,1.4631,0,1.4731,1.4727,1.4722,1.4716,1.4711,1.4706,1.47,1.4698,1.4686,1.4682,1.4676,1.4672,1.4662,1.4655,1.4647,1.4641,1.4634,1.4633,1.4632,1.4635,1.4638,1.4635,1.4624,1.4632,1.4632,1.4632,1.4632,1.4632,1.474,1.4739,1.4731,1.4725,1.472,1.4714,1.4711,1.4704,1.4699,1.4691,1.4685,1.4679,1.467,1.4658,1.4652,1.4647,1.4644,1.4644,1.4644,1.4644,1.4644,1.4639,1.4645,1.4645,1.4645,1.4645,1.4645,0,1.475,1.4745,1.474,1.4732,1.4727,1.4721,1.4714,1.4711,1.4706,1.4698,1.4693,1.4685,1.4678,1.4668,1.466,1.4658,1.4654,1.4656,1.4656,1.4654,1.4648,1.4649,1.4659,1.4659,1.4659,1.4659,1.4659,1.4659,1.4755,1.4752,1.4746,1.474,1.4734,1.4728,1.4725,1.4719,1.4713,1.4705,1.47,1.4693,1.4685,1.4676,1.4669,1.4666,1.4664,1.4666,1.4662,1.4656,1.4655,1.4654,1.4654,1.4666,1.4666,1.4669,1.4669,1.4669]}]]